Precipitable_Water
1.27 1.29 1.27 1.24 1.23 1.20 1.19 1.26 1.36 1.43 1.49 1.49 1.46 1.35 1.31 1.27 1.23 1.21 1.15 1.07 1.00 0.94
1.06 1.11 1.12 1.13 1.17 1.18 1.18 1.18 1.26 1.30 1.32 1.32 1.30 1.29 1.25 1.16 1.08 1.03 0.98 0.94 0.93 0.90
0.92 0.91 0.91 0.94 0.93 0.99 1.05 1.10 1.12 1.15 1.17 1.18 1.18 1.15 1.10 1.01 0.96 0.91 0.90 0.88 0.88 0.89
0.86 0.88 0.88 0.87 0.89 0.91 0.95 1.00 1.02 1.04 1.05 1.04 1.03 1.01 0.96 0.92 0.89 0.84 0.83 0.82 0.79 0.79
0.69 0.69 0.68 0.71 0.75 0.80 0.83 0.90 0.92 0.94 0.95 0.97 0.97 0.95 0.90 0.86 0.84 0.80 0.73 0.70 0.69 0.66
0.63 0.64 0.64 0.65 0.67 0.70 0.72 0.76 0.80 0.82 0.82 0.84 0.84 0.82 0.81 0.77 0.73 0.70 0.68 0.67 0.66 0.65
0.59 0.60 0.61 0.63 0.64 0.65 0.68 0.68 0.69 0.70 0.70 0.70 0.70 0.69 0.68 0.66 0.66 0.65 0.66 0.66 0.65 0.60
0.59 0.62 0.62 0.63 0.64 0.66 0.68 0.69 0.69 0.67 0.67 0.67 0.65 0.65 0.64 0.64 0.64 0.63 0.63 0.62 0.60 0.60
0.55 0.61 0.63 0.64 0.65 0.66 0.67 0.68 0.69 0.68 0.66 0.65 0.65 0.66 0.66 0.66 0.65 0.64 0.62 0.59 0.59 0.62
0.55 0.57 0.63 0.67 0.68 0.67 0.67 0.68 0.67 0.68 0.68 0.67 0.68 0.70 0.70 0.70 0.68 0.66 0.65 0.63 0.63 0.62
0.56 0.57 0.63 0.67 0.68 0.70 0.71 0.71 0.70 0.70 0.70 0.70 0.71 0.73 0.74 0.74 0.71 0.69 0.67 0.66 0.65 0.63
0.57 0.58 0.60 0.65 0.70 0.72 0.72 0.72 0.73 0.74 0.73 0.73 0.73 0.76 0.76 0.76 0.73 0.70 0.67 0.67 0.67 0.65
0.58 0.59 0.60 0.64 0.69 0.74 0.74 0.73 0.74 0.74 0.76 0.77 0.76 0.79 0.78 0.77 0.74 0.68 0.67 0.67 0.66 0.65
0.57 0.58 0.62 0.65 0.68 0.72 0.73 0.73 0.73 0.72 0.74 0.76 0.77 0.77 0.78 0.78 0.75 0.71 0.67 0.65 0.63 0.63
Wind_Speed
20 21 21 21 21 21 22 23 23 24 24 24 23 22 21 21 21 22 22 24 25 26
21 22 23 23 24 25 25 25 24 25 24 24 24 23 23 22 22 23 24 25 26 27
23 24 25 26 26 26 26 26 26 25 25 25 25 24 24 24 24 25 25 26 27 27
24 25 25 26 26 26 26 26 26 26 26 26 26 26 26 26 26 26 26 27 28 29
24 25 26 27 27 26 26 26 27 27 27 28 28 28 28 28 27 27 27 28 28 29
23 24 24 25 25 26 27 28 28 28 29 29 29 29 29 29 29 29 29 28 29 29
25 26 27 27 28 28 28 28 29 29 29 30 30 30 30 30 29 29 29 29 29 29
29 29 30 30 30 30 31 31 31 31 31 31 31 31 30 30 30 29 29 29 28 28
31 32 32 32 32 32 33 32 32 33 33 33 33 32 31 31 30 29 29 28 28 28
33 34 35 34 34 34 34 34 34 34 34 33 33 32 31 30 29 29 29 28 28 27
33 34 35 36 36 36 35 35 35 34 34 33 32 32 31 30 30 30 29 29 29 29
33 33 34 35 36 35 36 36 35 34 34 33 33 32 32 32 31 30 30 30 29 29
35 35 35 35 35 35 35 35 35 35 35 35 35 34 33 33 32 31 30 30 30 30
36 36 36 36 36 36 35 35 35 35 35 35 35 35 35 34 33 32 31 30 30 29
Wind_Direction
245 247 248 248 252 255 255 254 254 252 250 250 252 256 256 260 264 266 269 272 274 276
253 255 256 257 259 261 261 259 255 254 253 253 255 256 259 261 264 268 272 276 278 281
256 258 259 259 260 261 260 257 254 253 252 253 254 256 259 262 266 271 275 279 283 282
260 261 261 260 259 258 257 254 252 252 253 254 254 256 258 262 266 270 272 278 280 282
264 263 261 260 258 256 255 255 253 253 255 255 255 257 258 262 266 269 272 276 279 280
266 263 262 260 258 257 256 255 255 255 256 255 256 257 259 262 265 267 272 275 278 280
268 265 264 263 260 259 259 258 256 256 256 255 256 257 259 262 264 267 270 274 276 278
270 267 265 263 261 261 260 259 258 257 257 257 257 259 259 262 263 265 269 272 274 277
271 268 265 263 262 260 260 260 259 257 258 257 258 257 258 260 262 264 268 269 272 276
274 270 267 264 262 261 260 259 258 258 257 256 257 256 257 258 261 264 266 267 271 275
278 273 269 265 262 261 260 258 257 256 256 256 256 254 255 257 260 262 264 268 270 274
281 277 271 266 263 262 260 258 257 256 255 255 255 254 255 256 258 261 263 266 270 273
280 278 274 269 265 262 261 259 257 255 255 254 254 254 255 256 258 259 261 265 269 272
279 277 274 270 265 261 260 258 257 256 255 254 254 255 254 255 256 257 260 264 268 272